OMD68 VOHS-OOMS

Flight info

Callsign OMD68
Flight time 2h 59m
Altitude 38000
Route TAMIV7 GODEP W28 BBB M638 KARKU L301 RASKI N881 ATBED N767 ELIGO
Aircraft A21N/M-SDE2E3FGHIRWXY/LB1

Departure

Time 2026-04-20 19:33
Airport Rajiv Gandhi International Airport (VOHS)

Arrival

Time 2026-04-20 22:32
Airport Muscat International Airport (OOMS)
Time Latitude Longitude Altitude Speed Heading
2026-04-20 19:11 17.23434 78.43491 2013 ft 0 kts 360°
2026-04-20 19:21 17.23422 78.43490 2014 ft 2 kts 360°
2026-04-20 19:21 17.23406 78.43490 2014 ft 2 kts 360°
2026-04-20 19:21 17.23391 78.43490 2014 ft 2 kts 360°
2026-04-20 19:21 17.23376 78.43490 2015 ft 2 kts
2026-04-20 19:22 17.23362 78.43484 2015 ft 2 kts 30°
2026-04-20 19:22 17.23350 78.43475 2015 ft 2 kts 49°
2026-04-20 19:22 17.23342 78.43462 2015 ft 2 kts 67°
2026-04-20 19:22 17.23338 78.43448 2015 ft 1 kts 85°
2026-04-20 19:23 17.23338 78.43441 2015 ft 1 kts 91°
2026-04-20 19:23 17.23338 78.43439 2015 ft 0 kts 90°
2026-04-20 19:27 17.23338 78.43458 2015 ft 6 kts 90°
2026-04-20 19:27 17.23338 78.43510 2016 ft 6 kts 90°
2026-04-20 19:27 17.23338 78.43552 2017 ft 4 kts 88°
2026-04-20 19:28 17.23340 78.43581 2019 ft 2 kts 88°
2026-04-20 19:28 17.23340 78.43601 2019 ft 8 kts 88°
2026-04-20 19:28 17.23332 78.43676 2022 ft 8 kts 126°
2026-04-20 19:28 17.23280 78.43700 2024 ft 9 kts 172°
2026-04-20 19:29 17.23191 78.43701 2026 ft 14 kts 181°
2026-04-20 19:29 17.23107 78.43733 2029 ft 12 kts 115°
2026-04-20 19:29 17.23100 78.43852 2032 ft 22 kts 89°
2026-04-20 19:29 17.23103 78.44024 2038 ft 24 kts 89°
2026-04-20 19:30 17.23104 78.44199 2043 ft 23 kts 89°
2026-04-20 19:30 17.23106 78.44376 2044 ft 26 kts 89°
2026-04-20 19:30 17.23107 78.44567 2043 ft 26 kts 90°
2026-04-20 19:30 17.23110 78.44759 2038 ft 27 kts 89°
2026-04-20 19:31 17.23113 78.44971 2028 ft 29 kts 89°
2026-04-20 19:31 17.23116 78.45181 2024 ft 26 kts 89°
2026-04-20 19:31 17.23098 78.45305 2021 ft 16 kts 140°
2026-04-20 19:31 17.23002 78.45315 2026 ft 12 kts 202°
2026-04-20 19:32 17.22918 78.45220 2029 ft 25 kts 256°
2026-04-20 19:32 17.22907 78.44862 2037 ft 86 kts 268°
2026-04-20 19:32 17.22897 78.43972 2039 ft 155 kts 269°
2026-04-20 19:32 17.22903 78.42805 2570 ft 162 kts 269°
2026-04-20 19:33 17.22905 78.41640 3261 ft 162 kts 268°
2026-04-20 19:33 17.22889 78.40456 3840 ft 166 kts 267°
2026-04-20 19:33 17.22859 78.39203 4302 ft 181 kts 267°
2026-04-20 19:33 17.22829 78.37826 4736 ft 200 kts 268°
2026-04-20 19:34 17.22797 78.36318 5194 ft 219 kts 269°
2026-04-20 19:34 17.22768 78.34664 5730 ft 237 kts 269°
2026-04-20 19:34 17.22817 78.32870 6260 ft 255 kts 277°
2026-04-20 19:34 17.23173 78.31019 6777 ft 272 kts 286°
2026-04-20 19:35 17.23731 78.29056 7326 ft 289 kts 288°
2026-04-20 19:35 17.24340 78.27027 8124 ft 295 kts 288°
2026-04-20 19:35 17.24945 78.25005 8995 ft 297 kts 288°
2026-04-20 19:35 17.25557 78.22944 9852 ft 299 kts 288°
2026-04-20 19:36 17.26165 78.20879 10634 ft 303 kts 288°
2026-04-20 19:36 17.26785 78.18760 11405 ft 309 kts 288°
2026-04-20 19:36 17.27410 78.16622 12248 ft 311 kts 288°
2026-04-20 19:36 17.28045 78.14448 13111 ft 312 kts 288°
2026-04-20 19:37 17.28668 78.12312 13909 ft 315 kts 288°
2026-04-20 19:37 17.29307 78.10122 14688 ft 318 kts 288°
2026-04-20 19:37 17.29951 78.07909 15437 ft 321 kts 287°
2026-04-20 19:37 17.30603 78.05665 16145 ft 325 kts 287°
2026-04-20 19:38 17.31195 78.03627 16760 ft 329 kts 287°
2026-04-20 19:38 17.31862 78.01330 17457 ft 333 kts 287°
2026-04-20 19:38 17.32540 77.98993 18149 ft 336 kts 287°
2026-04-20 19:38 17.33215 77.96667 18819 ft 339 kts 286°
2026-04-20 19:39 17.33904 77.94292 19471 ft 342 kts 285°
2026-04-20 19:39 17.34588 77.91930 20108 ft 345 kts 285°
2026-04-20 19:39 17.35282 77.89529 20733 ft 348 kts 285°
2026-04-20 19:39 17.35985 77.87099 21346 ft 351 kts 285°
2026-04-20 19:40 17.36693 77.84649 21953 ft 353 kts 284°
2026-04-20 19:40 17.37398 77.82207 22538 ft 356 kts 284°
2026-04-20 19:40 17.38122 77.79697 23142 ft 359 kts 284°
2026-04-20 19:40 17.38834 77.77227 23741 ft 360 kts 284°
2026-04-20 19:41 17.39558 77.74716 24341 ft 362 kts 283°
2026-04-20 19:41 17.40287 77.72185 24925 ft 364 kts 283°
2026-04-20 19:41 17.41016 77.69655 25503 ft 365 kts 283°
2026-04-20 19:41 17.41746 77.67111 26049 ft 367 kts 283°
2026-04-20 19:42 17.42477 77.64572 26588 ft 368 kts 282°
2026-04-20 19:42 17.43200 77.61993 27134 ft 369 kts 281°
2026-04-20 19:42 17.43793 77.59391 27680 ft 368 kts 277°
2026-04-20 19:42 17.44236 77.56752 28207 ft 368 kts 274°
2026-04-20 19:43 17.44585 77.54102 28731 ft 369 kts 273°
2026-04-20 19:43 17.44923 77.51469 29244 ft 370 kts 273°
2026-04-20 19:43 17.45266 77.48784 29754 ft 372 kts 272°
2026-04-20 19:43 17.45612 77.46077 30238 ft 374 kts 272°
2026-04-20 19:44 17.45932 77.43569 30657 ft 377 kts 272°
2026-04-20 19:44 17.46275 77.40877 31089 ft 379 kts 272°
2026-04-20 19:44 17.46624 77.38128 31556 ft 381 kts 271°
2026-04-20 19:44 17.46973 77.35392 32001 ft 383 kts 271°
2026-04-20 19:45 17.47330 77.32576 32426 ft 386 kts 271°
2026-04-20 19:45 17.47682 77.29805 32853 ft 388 kts 271°
2026-04-20 19:45 17.48040 77.26987 33284 ft 390 kts 270°
2026-04-20 19:45 17.48394 77.24182 33685 ft 393 kts 270°
2026-04-20 19:46 17.48753 77.21347 34083 ft 396 kts 270°
2026-04-20 19:46 17.49110 77.18512 34469 ft 398 kts 270°
2026-04-20 19:46 17.49479 77.15598 34846 ft 401 kts 270°
2026-04-20 19:46 17.49845 77.12696 35219 ft 403 kts 270°
2026-04-20 19:47 17.50196 77.09905 35598 ft 404 kts 270°
2026-04-20 19:47 17.50567 77.06973 36080 ft 403 kts 270°
2026-04-20 19:47 17.50931 77.04091 36504 ft 402 kts 270°
2026-04-20 19:47 17.51293 77.01196 36828 ft 404 kts 270°
2026-04-20 19:48 17.51660 76.98266 37130 ft 405 kts 270°
2026-04-20 19:48 17.52024 76.95342 37430 ft 407 kts 269°
2026-04-20 19:48 17.52391 76.92416 37717 ft 408 kts 269°
2026-04-20 19:48 17.52759 76.89460 37907 ft 410 kts 269°
2026-04-20 19:49 17.53124 76.86538 37909 ft 411 kts 269°
2026-04-20 19:49 17.53863 76.80583 37920 ft 411 kts 269°
2026-04-20 19:50 17.54599 76.74638 37929 ft 412 kts 269°
2026-04-20 19:50 17.55334 76.68723 37935 ft 413 kts 269°
2026-04-20 19:51 17.56320 76.62773 37934 ft 415 kts 272°
2026-04-20 19:51 17.57385 76.56822 37931 ft 415 kts 272°
2026-04-20 19:52 17.58446 76.50899 37934 ft 415 kts 272°
2026-04-20 19:52 17.59505 76.44940 37931 ft 415 kts 272°
2026-04-20 19:53 17.60562 76.39005 37928 ft 415 kts 272°
2026-04-20 19:53 17.61617 76.33051 37926 ft 415 kts 272°
2026-04-20 19:54 17.62667 76.27129 37920 ft 414 kts 271°
2026-04-20 19:54 17.63713 76.21204 37918 ft 414 kts 272°
2026-04-20 19:55 17.64761 76.15253 37917 ft 415 kts 271°
2026-04-20 19:55 17.65802 76.09342 37919 ft 414 kts 271°
2026-04-20 19:56 17.66982 76.03387 37924 ft 420 kts 275°
2026-04-20 19:56 17.68723 75.97535 37925 ft 427 kts 281°
2026-04-20 19:57 17.71076 75.91740 37925 ft 432 kts 285°
2026-04-20 19:57 17.73587 75.86043 37926 ft 432 kts 285°
2026-04-20 19:58 17.76099 75.80350 37926 ft 431 kts 285°
2026-04-20 19:58 17.78619 75.74625 37925 ft 433 kts 285°
2026-04-20 19:59 17.81142 75.68885 37926 ft 433 kts 285°
2026-04-20 19:59 17.83654 75.63169 37925 ft 432 kts 285°
2026-04-20 20:00 17.86162 75.57460 37924 ft 432 kts 285°
2026-04-20 20:00 17.88659 75.51760 37925 ft 431 kts 285°
2026-04-20 20:01 17.91172 75.46025 37926 ft 433 kts 285°
2026-04-20 20:01 17.93677 75.40301 37922 ft 432 kts 285°
2026-04-20 20:02 17.96180 75.34574 37916 ft 432 kts 285°
2026-04-20 20:02 17.98696 75.28809 37916 ft 434 kts 285°
2026-04-20 20:03 18.01207 75.23055 37910 ft 433 kts 285°
2026-04-20 20:03 18.03699 75.17342 37917 ft 431 kts 285°
2026-04-20 20:04 18.06195 75.11607 37908 ft 431 kts 285°
2026-04-20 20:04 18.08695 75.05864 37908 ft 431 kts 285°
2026-04-20 20:05 18.11180 75.00143 37906 ft 431 kts 285°
2026-04-20 20:05 18.13676 74.94393 37907 ft 430 kts 285°
2026-04-20 20:06 18.16152 74.88683 37915 ft 429 kts 285°
2026-04-20 20:06 18.18625 74.82970 37916 ft 429 kts 285°
2026-04-20 20:07 18.21093 74.77261 37918 ft 430 kts 285°
2026-04-20 20:07 18.23556 74.71564 37935 ft 428 kts 285°
2026-04-20 20:08 18.26045 74.65858 37942 ft 428 kts 285°
2026-04-20 20:08 18.28541 74.60171 37944 ft 429 kts 285°
2026-04-20 20:09 18.31031 74.54480 37952 ft 429 kts 285°
2026-04-20 20:09 18.33525 74.48771 37952 ft 428 kts 285°
2026-04-20 20:10 18.35996 74.43105 37946 ft 429 kts 285°
2026-04-20 20:10 18.38484 74.37391 37953 ft 429 kts 285°
2026-04-20 20:11 18.40959 74.31699 37960 ft 427 kts 285°
2026-04-20 20:11 18.43419 74.26050 37954 ft 427 kts 285°
2026-04-20 20:12 18.45884 74.20368 37957 ft 426 kts 285°
2026-04-20 20:12 18.48338 74.14711 37953 ft 425 kts 285°
2026-04-20 20:13 18.52013 74.06227 37962 ft 425 kts 285°
2026-04-20 20:13 18.54447 74.00595 37968 ft 424 kts 285°
2026-04-20 20:14 18.56887 73.94946 37968 ft 423 kts 285°
2026-04-20 20:14 18.59361 73.89273 37982 ft 425 kts 286°
2026-04-20 20:15 18.61924 73.83661 37983 ft 428 kts 287°
2026-04-20 20:15 18.64510 73.77999 37983 ft 427 kts 287°
2026-04-20 20:16 18.67066 73.72381 37981 ft 426 kts 286°
2026-04-20 20:16 18.69609 73.66768 37981 ft 427 kts 286°
2026-04-20 20:17 18.72157 73.61134 37967 ft 425 kts 287°
2026-04-20 20:17 18.74707 73.55495 37962 ft 426 kts 286°
2026-04-20 20:18 18.77268 73.49817 37953 ft 427 kts 287°
2026-04-20 20:18 18.79810 73.44186 37939 ft 426 kts 287°
2026-04-20 20:19 18.82516 73.38614 37913 ft 431 kts 289°
2026-04-20 20:19 18.85364 73.33074 37890 ft 429 kts 289°
2026-04-20 20:20 18.88216 73.27516 37870 ft 431 kts 289°
2026-04-20 20:20 18.91071 73.21941 37867 ft 430 kts 289°
2026-04-20 20:21 18.93903 73.16404 37869 ft 429 kts 289°
2026-04-20 20:21 18.96731 73.10862 37855 ft 430 kts 290°
2026-04-20 20:22 18.99573 73.05294 37852 ft 431 kts 290°
2026-04-20 20:22 19.02420 72.99702 37843 ft 431 kts 290°
2026-04-20 20:23 19.05258 72.94129 37837 ft 430 kts 290°
2026-04-20 20:23 19.08385 72.88696 37836 ft 438 kts 296°
2026-04-20 20:24 19.12107 72.83567 37833 ft 444 kts 303°
2026-04-20 20:24 19.16306 72.78682 37836 ft 449 kts 305°
2026-04-20 20:25 19.20511 72.73877 37832 ft 447 kts 305°
2026-04-20 20:25 19.24741 72.69031 37832 ft 447 kts 305°
2026-04-20 20:26 19.28948 72.64202 37829 ft 447 kts 305°
2026-04-20 20:26 19.33172 72.59350 37826 ft 447 kts 305°
2026-04-20 20:27 19.37379 72.54508 37826 ft 448 kts 305°
2026-04-20 20:27 19.41581 72.49672 37824 ft 448 kts 305°
2026-04-20 20:28 19.45795 72.44817 37821 ft 447 kts 306°
2026-04-20 20:28 19.49994 72.39972 37824 ft 447 kts 306°
2026-04-20 20:29 19.54199 72.35120 37824 ft 448 kts 306°
2026-04-20 20:29 19.58413 72.30251 37826 ft 446 kts 306°
2026-04-20 20:30 19.62598 72.25416 37825 ft 447 kts 306°
2026-04-20 20:30 19.66813 72.20536 37828 ft 446 kts 306°
2026-04-20 20:31 19.70996 72.15694 37827 ft 445 kts 306°
2026-04-20 20:31 19.75166 72.10862 37822 ft 446 kts 306°
2026-04-20 20:32 19.79254 72.06119 37816 ft 444 kts 306°
2026-04-20 20:32 19.83402 72.01302 37814 ft 444 kts 306°
2026-04-20 20:33 19.87576 71.96450 37816 ft 443 kts 306°
2026-04-20 20:33 19.91714 71.91639 37814 ft 443 kts 306°
2026-04-20 20:34 19.95888 71.86778 37814 ft 443 kts 306°
2026-04-20 20:34 20.00032 71.81948 37813 ft 444 kts 306°
2026-04-20 20:35 20.04172 71.77119 37817 ft 443 kts 306°
2026-04-20 20:35 20.08337 71.72253 37829 ft 444 kts 307°
2026-04-20 20:36 20.12484 71.67404 37830 ft 444 kts 307°
2026-04-20 20:36 20.16574 71.62505 37835 ft 441 kts 304°
2026-04-20 20:37 20.20106 71.57211 37840 ft 435 kts 296°
2026-04-20 20:37 20.22909 71.51565 37829 ft 430 kts 289°
2026-04-20 20:38 20.25016 71.45658 37835 ft 426 kts 284°
2026-04-20 20:38 20.26905 71.39693 37831 ft 426 kts 284°
2026-04-20 20:39 20.28719 71.33946 37834 ft 425 kts 284°
2026-04-20 20:39 20.30604 71.27969 37833 ft 426 kts 284°
2026-04-20 20:40 20.32491 71.21989 37829 ft 427 kts 284°
2026-04-20 20:40 20.34366 71.16040 37832 ft 426 kts 284°
2026-04-20 20:41 20.36246 71.10067 37830 ft 426 kts 285°
2026-04-20 20:41 20.38138 71.04057 37828 ft 426 kts 284°
2026-04-20 20:42 20.40026 70.98046 37827 ft 427 kts 285°
2026-04-20 20:42 20.41872 70.92163 37829 ft 427 kts 285°
2026-04-20 20:43 20.43757 70.86146 37829 ft 427 kts 285°
2026-04-20 20:43 20.45633 70.80142 37831 ft 426 kts 285°
2026-04-20 20:44 20.47482 70.74224 37829 ft 426 kts 285°
2026-04-20 20:44 20.49362 70.68198 37824 ft 426 kts 285°
2026-04-20 20:45 20.51226 70.62215 37824 ft 426 kts 285°
2026-04-20 20:45 20.53056 70.56335 37822 ft 426 kts 286°
2026-04-20 20:46 20.54928 70.50313 37822 ft 426 kts 285°
2026-04-20 20:46 20.56775 70.44359 37821 ft 426 kts 286°
2026-04-20 20:47 20.58628 70.38375 37825 ft 426 kts 286°
2026-04-20 20:47 20.60494 70.32346 37823 ft 426 kts 286°
2026-04-20 20:48 20.62342 70.26366 37827 ft 427 kts 286°
2026-04-20 20:48 20.64197 70.20359 37830 ft 427 kts 286°
2026-04-20 20:49 20.66052 70.14344 37836 ft 427 kts 287°
2026-04-20 20:49 20.67910 70.08309 37840 ft 426 kts 287°
2026-04-20 20:50 20.69751 70.02308 37852 ft 427 kts 287°
2026-04-20 20:50 20.71589 69.96322 37848 ft 426 kts 287°
2026-04-20 20:51 20.73440 69.90284 37843 ft 426 kts 287°
2026-04-20 20:51 20.75279 69.84274 37858 ft 428 kts 288°
2026-04-20 20:52 20.77117 69.78262 37849 ft 427 kts 288°
2026-04-20 20:52 20.78955 69.72237 37854 ft 429 kts 288°
2026-04-20 20:53 20.80810 69.66153 37852 ft 429 kts 288°
2026-04-20 20:53 20.82649 69.60105 37856 ft 429 kts 289°
2026-04-20 20:54 20.84489 69.54048 37853 ft 429 kts 289°
2026-04-20 20:54 20.86325 69.47993 37847 ft 431 kts 289°
2026-04-20 20:55 20.88180 69.41878 37848 ft 432 kts 290°
2026-04-20 20:55 20.90026 69.35786 37840 ft 434 kts 290°
2026-04-20 20:56 20.91887 69.29619 37859 ft 434 kts 289°
2026-04-20 20:56 20.93715 69.23559 37846 ft 436 kts 290°
2026-04-20 20:57 20.95575 69.17374 37846 ft 438 kts 290°
2026-04-20 20:57 20.97520 69.11205 37853 ft 439 kts 293°
2026-04-20 20:58 20.99933 69.05201 37853 ft 441 kts 296°
2026-04-20 20:58 21.02445 68.99217 37857 ft 441 kts 296°
2026-04-20 20:59 21.04961 68.93211 37849 ft 442 kts 296°
2026-04-20 20:59 21.07452 68.87246 37847 ft 442 kts 296°
2026-04-20 21:00 21.09953 68.81245 37850 ft 441 kts 296°
2026-04-20 21:00 21.12454 68.75238 37846 ft 442 kts 296°
2026-04-20 21:01 21.14947 68.69242 37846 ft 442 kts 297°
2026-04-20 21:01 21.17437 68.63250 37846 ft 443 kts 296°
2026-04-20 21:02 21.19934 68.57227 37847 ft 443 kts 297°
2026-04-20 21:02 21.22441 68.51179 37850 ft 443 kts 297°
2026-04-20 21:03 21.24924 68.45174 37860 ft 442 kts 297°
2026-04-20 21:03 21.27412 68.39159 37864 ft 443 kts 297°
2026-04-20 21:04 21.29913 68.33099 37863 ft 443 kts 296°
2026-04-20 21:04 21.32404 68.27060 37867 ft 444 kts 297°
2026-04-20 21:05 21.34888 68.21027 37860 ft 445 kts 297°
2026-04-20 21:05 21.37372 68.14989 37866 ft 445 kts 297°
2026-04-20 21:06 21.39875 68.08898 37868 ft 445 kts 297°
2026-04-20 21:06 21.42358 68.02839 37860 ft 446 kts 297°
2026-04-20 21:07 21.44853 67.96755 37850 ft 447 kts 297°
2026-04-20 21:07 21.47356 67.90642 37850 ft 447 kts 297°
2026-04-20 21:08 21.49845 67.84555 37853 ft 446 kts 297°
2026-04-20 21:08 21.52330 67.78472 37848 ft 446 kts 297°
2026-04-20 21:09 21.54809 67.72392 37851 ft 446 kts 297°
2026-04-20 21:09 21.57305 67.66258 37854 ft 447 kts 297°
2026-04-20 21:10 21.59789 67.60155 37851 ft 448 kts 297°
2026-04-20 21:10 21.62267 67.54057 37854 ft 447 kts 297°
2026-04-20 21:11 21.64753 67.47929 37847 ft 447 kts 297°
2026-04-20 21:11 21.67227 67.41827 37851 ft 447 kts 297°
2026-04-20 21:12 21.69708 67.35697 37854 ft 447 kts 297°
2026-04-20 21:12 21.72174 67.29594 37854 ft 447 kts 297°
2026-04-20 21:13 21.74593 67.23605 37851 ft 447 kts 297°
2026-04-20 21:13 21.77056 67.17495 37860 ft 446 kts 297°
2026-04-20 21:14 21.79518 67.11385 37841 ft 446 kts 297°
2026-04-20 21:14 21.81976 67.05274 37855 ft 446 kts 297°
2026-04-20 21:15 21.84436 66.99150 37853 ft 446 kts 297°
2026-04-20 21:15 21.86886 66.93043 37850 ft 446 kts 297°
2026-04-20 21:16 21.89341 66.86915 37851 ft 446 kts 297°
2026-04-20 21:16 21.91791 66.80793 37838 ft 446 kts 297°
2026-04-20 21:17 21.94231 66.74689 37847 ft 447 kts 297°
2026-04-20 21:17 21.96692 66.68520 37846 ft 447 kts 297°
2026-04-20 21:18 21.99129 66.62400 37844 ft 448 kts 297°
2026-04-20 21:18 22.01577 66.56242 37850 ft 449 kts 297°
2026-04-20 21:19 22.04027 66.50075 37847 ft 448 kts 297°
2026-04-20 21:20 22.07718 66.40813 37854 ft 449 kts 297°
2026-04-20 21:20 22.10175 66.34625 37860 ft 450 kts 296°
2026-04-20 21:21 22.12636 66.28415 37866 ft 450 kts 296°
2026-04-20 21:21 22.15086 66.22224 37858 ft 449 kts 296°
2026-04-20 21:22 22.17523 66.16055 37851 ft 450 kts 296°
2026-04-20 21:22 22.19968 66.09857 37838 ft 451 kts 296°
2026-04-20 21:23 22.22419 66.03635 37842 ft 452 kts 296°
2026-04-20 21:23 22.24883 65.97373 37841 ft 452 kts 296°
2026-04-20 21:24 22.27330 65.91146 37842 ft 452 kts 296°
2026-04-20 21:24 22.29777 65.84907 37836 ft 452 kts 296°
2026-04-20 21:25 22.32224 65.78661 37839 ft 452 kts 296°
2026-04-20 21:25 22.34665 65.72430 37843 ft 454 kts 296°
2026-04-20 21:26 22.37078 65.66255 37838 ft 454 kts 296°
2026-04-20 21:26 22.39528 65.59980 37843 ft 455 kts 296°
2026-04-20 21:27 22.41985 65.53672 37840 ft 455 kts 296°
2026-04-20 21:27 22.44437 65.47376 37841 ft 455 kts 295°
2026-04-20 21:28 22.46887 65.41075 37838 ft 456 kts 295°
2026-04-20 21:28 22.49327 65.34790 37832 ft 456 kts 295°
2026-04-20 21:29 22.51773 65.28481 37834 ft 456 kts 295°
2026-04-20 21:29 22.54229 65.22136 37833 ft 457 kts 295°
2026-04-20 21:30 22.56665 65.15833 37839 ft 457 kts 295°
2026-04-20 21:30 22.59122 65.09471 37836 ft 457 kts 295°
2026-04-20 21:31 22.61523 65.03248 37830 ft 458 kts 295°
2026-04-20 21:31 22.63971 64.96890 37835 ft 458 kts 294°
2026-04-20 21:32 22.66411 64.90546 37836 ft 457 kts 294°
2026-04-20 21:32 22.68850 64.84189 37841 ft 456 kts 294°
2026-04-20 21:33 22.71279 64.77857 37846 ft 456 kts 294°
2026-04-20 21:33 22.73718 64.71489 37841 ft 456 kts 294°
2026-04-20 21:34 22.76144 64.65144 37836 ft 456 kts 294°
2026-04-20 21:34 22.78558 64.58820 37845 ft 456 kts 294°
2026-04-20 21:35 22.80973 64.52489 37834 ft 455 kts 294°
2026-04-20 21:35 22.83392 64.46134 37829 ft 455 kts 294°
2026-04-20 21:36 22.85781 64.39852 37824 ft 454 kts 294°
2026-04-20 21:36 22.88181 64.33527 37823 ft 454 kts 294°
2026-04-20 21:37 22.90582 64.27201 37822 ft 453 kts 293°
2026-04-20 21:37 22.92975 64.20871 37822 ft 453 kts 293°
2026-04-20 21:38 22.95361 64.14560 37824 ft 454 kts 293°
2026-04-20 21:38 22.97745 64.08244 37820 ft 453 kts 293°
2026-04-20 21:39 23.00115 64.01943 37818 ft 453 kts 293°
2026-04-20 21:39 23.02494 63.95594 37827 ft 453 kts 292°
2026-04-20 21:40 23.04418 63.89118 37823 ft 452 kts 285°
2026-04-20 21:40 23.05593 63.82423 37828 ft 452 kts 278°
2026-04-20 21:41 23.06005 63.75668 37827 ft 453 kts 272°
2026-04-20 21:41 23.06076 63.68835 37826 ft 453 kts 271°
2026-04-20 21:42 23.06136 63.61995 37826 ft 454 kts 271°
2026-04-20 21:42 23.06201 63.55168 37823 ft 453 kts 271°
2026-04-20 21:43 23.06267 63.48308 37832 ft 452 kts 271°
2026-04-20 21:43 23.06330 63.41537 37825 ft 451 kts 271°
2026-04-20 21:44 23.06392 63.34777 37823 ft 449 kts 271°
2026-04-20 21:44 23.06450 63.27988 37830 ft 449 kts 271°
2026-04-20 21:45 23.06504 63.21257 37824 ft 449 kts 271°
2026-04-20 21:45 23.06557 63.14460 37828 ft 450 kts 271°
2026-04-20 21:46 23.06608 63.07676 37829 ft 450 kts 271°
2026-04-20 21:46 23.06655 63.00893 37819 ft 451 kts 271°
2026-04-20 21:47 23.06698 62.94141 37817 ft 450 kts 271°
2026-04-20 21:47 23.06739 62.87367 37809 ft 449 kts 271°
2026-04-20 21:48 23.06776 62.80612 37807 ft 448 kts 271°
2026-04-20 21:48 23.06811 62.73880 37808 ft 449 kts 271°
2026-04-20 21:49 23.06844 62.67128 37821 ft 449 kts 271°
2026-04-20 21:49 23.06874 62.60311 37825 ft 449 kts 271°
2026-04-20 21:50 23.06900 62.53582 37827 ft 448 kts 271°
2026-04-20 21:50 23.06924 62.46847 37829 ft 447 kts 271°
2026-04-20 21:51 23.06945 62.40120 37828 ft 447 kts 271°
2026-04-20 21:51 23.06962 62.33395 37824 ft 446 kts 271°
2026-04-20 21:52 23.06978 62.26688 37826 ft 446 kts 271°
2026-04-20 21:52 23.06990 62.19944 37824 ft 446 kts 271°
2026-04-20 21:53 23.07000 62.13220 37825 ft 445 kts 271°
2026-04-20 21:53 23.07006 62.06557 37829 ft 445 kts 271°
2026-04-20 21:54 23.07010 61.99834 37821 ft 445 kts 271°
2026-04-20 21:54 23.07011 61.93161 37825 ft 445 kts 271°
2026-04-20 21:55 23.07008 61.86429 37813 ft 444 kts 271°
2026-04-20 21:55 23.07004 61.79765 37815 ft 443 kts 271°
2026-04-20 21:56 23.06997 61.73096 37817 ft 442 kts 271°
2026-04-20 21:56 23.06986 61.66457 37819 ft 441 kts 271°
2026-04-20 21:57 23.06974 61.59803 37804 ft 440 kts 271°
2026-04-20 21:57 23.06957 61.53172 37803 ft 439 kts 271°
2026-04-20 21:58 23.06940 61.46571 37808 ft 438 kts 271°
2026-04-20 21:58 23.06919 61.39995 37804 ft 437 kts 271°
2026-04-20 21:59 23.06894 61.33402 37802 ft 436 kts 271°
2026-04-20 21:59 23.06868 61.26826 37806 ft 435 kts 271°
2026-04-20 22:00 23.06839 61.20302 37798 ft 434 kts 270°
2026-04-20 22:00 23.06806 61.13741 37794 ft 434 kts 270°
2026-04-20 22:01 23.06771 61.07245 37804 ft 433 kts 271°
2026-04-20 22:01 23.06734 61.00696 37803 ft 434 kts 271°
2026-04-20 22:02 23.06693 60.94148 37791 ft 433 kts 271°
2026-04-20 22:02 23.06648 60.87656 37794 ft 431 kts 271°
2026-04-20 22:03 23.06604 60.81181 37801 ft 431 kts 271°
2026-04-20 22:03 23.06555 60.74654 37791 ft 431 kts 271°
2026-04-20 22:04 23.06574 60.68207 37790 ft 429 kts 274°
2026-04-20 22:04 23.07137 60.61770 37792 ft 427 kts 280°
2026-04-20 22:05 23.08322 60.55472 37791 ft 425 kts 286°
2026-04-20 22:05 23.09807 60.49297 37799 ft 424 kts 286°
2026-04-20 22:06 23.11306 60.43102 37793 ft 424 kts 286°
2026-04-20 22:06 23.12047 60.40022 37534 ft 424 kts 286°
2026-04-20 22:06 23.12791 60.36941 37246 ft 422 kts 286°
2026-04-20 22:06 23.13539 60.33834 36852 ft 419 kts 285°
2026-04-20 22:07 23.14270 60.30796 36294 ft 417 kts 285°
2026-04-20 22:07 23.15001 60.27762 35523 ft 419 kts 285°
2026-04-20 22:07 23.15735 60.24718 34725 ft 421 kts 284°
2026-04-20 22:07 23.16469 60.21663 34167 ft 417 kts 284°
2026-04-20 22:08 23.17196 60.18628 33619 ft 414 kts 283°
2026-04-20 22:08 23.17917 60.15611 33104 ft 410 kts 283°
2026-04-20 22:08 23.18617 60.12663 32587 ft 407 kts 283°
2026-04-20 22:08 23.19318 60.09711 32104 ft 403 kts 283°
2026-04-20 22:09 23.20022 60.06747 31610 ft 399 kts 283°
2026-04-20 22:09 23.20712 60.03848 31136 ft 396 kts 282°
2026-04-20 22:09 23.21390 60.00993 30692 ft 391 kts 282°
2026-04-20 22:09 23.22060 59.98163 30237 ft 388 kts 282°
2026-04-20 22:10 23.22733 59.95327 29783 ft 384 kts 283°
2026-04-20 22:10 23.23395 59.92533 29320 ft 381 kts 283°
2026-04-20 22:10 23.24054 59.89750 28845 ft 379 kts 283°
2026-04-20 22:10 23.24705 59.87001 28406 ft 376 kts 283°
2026-04-20 22:11 23.25348 59.84292 27983 ft 372 kts 282°
2026-04-20 22:11 23.25991 59.81567 27537 ft 369 kts 283°
2026-04-20 22:11 23.26628 59.78883 27102 ft 366 kts 283°
2026-04-20 22:11 23.27254 59.76225 26643 ft 364 kts 283°
2026-04-20 22:12 23.27882 59.73563 26194 ft 362 kts 282°
2026-04-20 22:12 23.28503 59.70933 25758 ft 359 kts 283°
2026-04-20 22:12 23.29123 59.68294 25312 ft 357 kts 283°
2026-04-20 22:12 23.29732 59.65711 24890 ft 355 kts 283°
2026-04-20 22:13 23.30338 59.63133 24463 ft 352 kts 282°
2026-04-20 22:13 23.30940 59.60569 24045 ft 349 kts 283°
2026-04-20 22:13 23.31538 59.58019 23601 ft 347 kts 283°
2026-04-20 22:13 23.32134 59.55479 23170 ft 345 kts 283°
2026-04-20 22:14 23.32721 59.52973 22712 ft 343 kts 283°
2026-04-20 22:14 23.33312 59.50446 22268 ft 342 kts 283°
2026-04-20 22:14 23.33896 59.47948 21823 ft 340 kts 283°
2026-04-20 22:14 23.34470 59.45492 21415 ft 337 kts 283°
2026-04-20 22:15 23.35046 59.43021 20965 ft 336 kts 284°
2026-04-20 22:15 23.35618 59.40572 20519 ft 335 kts 284°
2026-04-20 22:15 23.36186 59.38134 20096 ft 333 kts 284°
2026-04-20 22:15 23.36749 59.35717 19675 ft 331 kts 284°
2026-04-20 22:16 23.37310 59.33307 19252 ft 329 kts 284°
2026-04-20 22:16 23.37868 59.30911 18834 ft 327 kts 284°
2026-04-20 22:16 23.38426 59.28507 18417 ft 324 kts 284°
2026-04-20 22:16 23.38975 59.26143 17997 ft 323 kts 284°
2026-04-20 22:17 23.39518 59.23799 17568 ft 322 kts 285°
2026-04-20 22:17 23.40068 59.21426 17137 ft 320 kts 285°
2026-04-20 22:17 23.40609 59.19098 16681 ft 319 kts 285°
2026-04-20 22:17 23.41115 59.16917 16292 ft 318 kts 285°
2026-04-20 22:18 23.41642 59.14610 15835 ft 318 kts 284°
2026-04-20 22:18 23.42120 59.12237 15313 ft 320 kts 284°
2026-04-20 22:18 23.42584 59.09880 14766 ft 323 kts 284°
2026-04-20 22:18 23.43053 59.07479 14191 ft 325 kts 284°
2026-04-20 22:19 23.43518 59.05081 13666 ft 325 kts 284°
2026-04-20 22:19 23.43988 59.02669 13135 ft 326 kts 285°
2026-04-20 22:19 23.44457 59.00279 12590 ft 326 kts 285°
2026-04-20 22:19 23.44925 58.97883 12098 ft 324 kts 285°
2026-04-20 22:20 23.45397 58.95476 11589 ft 323 kts 284°
2026-04-20 22:20 23.45860 58.93098 11081 ft 321 kts 284°
2026-04-20 22:20 23.46319 58.90741 10566 ft 319 kts 284°
2026-04-20 22:20 23.46783 58.88360 10112 ft 314 kts 284°
2026-04-20 22:21 23.47233 58.86060 9872 ft 304 kts 284°
2026-04-20 22:21 23.47667 58.83849 9555 ft 296 kts 284°
2026-04-20 22:21 23.48088 58.81702 9149 ft 292 kts 284°
2026-04-20 22:21 23.48514 58.79530 8687 ft 291 kts 284°
2026-04-20 22:22 23.48935 58.77383 8238 ft 288 kts 284°
2026-04-20 22:22 23.49346 58.75276 7818 ft 286 kts 283°
2026-04-20 22:22 23.49756 58.73164 7408 ft 283 kts 283°
2026-04-20 22:22 23.50162 58.71078 6972 ft 281 kts 283°
2026-04-20 22:23 23.50565 58.69006 6569 ft 278 kts 283°
2026-04-20 22:23 23.50968 58.66956 6186 ft 275 kts 284°
2026-04-20 22:23 23.51664 58.65068 6014 ft 264 kts 301°
2026-04-20 22:23 23.52793 58.63527 5730 ft 258 kts 312°
2026-04-20 22:24 23.54023 58.62123 5456 ft 253 kts 314°
2026-04-20 22:24 23.55228 58.60772 5201 ft 248 kts 314°
2026-04-20 22:24 23.56425 58.59419 4937 ft 243 kts 313°
2026-04-20 22:24 23.57574 58.58108 4681 ft 238 kts 313°
2026-04-20 22:25 23.58711 58.56806 4442 ft 232 kts 313°
2026-04-20 22:25 23.59822 58.55527 4207 ft 227 kts 312°
2026-04-20 22:25 23.60891 58.54293 3990 ft 222 kts 312°
2026-04-20 22:25 23.61942 58.53075 3766 ft 217 kts 309°
2026-04-20 22:26 23.62567 58.51650 3623 ft 204 kts 277°
2026-04-20 22:26 23.62604 58.50151 3515 ft 194 kts 265°
2026-04-20 22:26 23.62493 58.48718 3347 ft 188 kts 263°
2026-04-20 22:27 23.62217 58.45824 2841 ft 190 kts 263°
2026-04-20 22:27 23.62095 58.44413 2592 ft 185 kts 263°
2026-04-20 22:27 23.61981 58.43033 2340 ft 180 kts 263°
2026-04-20 22:27 23.61875 58.41724 2094 ft 167 kts 264°
2026-04-20 22:28 23.61778 58.40513 1900 ft 153 kts 263°
2026-04-20 22:28 23.61688 58.39399 1699 ft 142 kts 264°
2026-04-20 22:28 23.61605 58.38356 1512 ft 133 kts 265°
2026-04-20 22:28 23.61541 58.37369 1333 ft 129 kts 265°
2026-04-20 22:29 23.61462 58.36407 1219 ft 129 kts 263°
2026-04-20 22:29 23.61378 58.35426 1133 ft 129 kts 263°
2026-04-20 22:29 23.61285 58.34451 962 ft 128 kts 262°
2026-04-20 22:29 23.61204 58.33501 793 ft 127 kts 264°
2026-04-20 22:30 23.61136 58.32544 592 ft 125 kts 265°
2026-04-20 22:30 23.61063 58.31604 430 ft 124 kts 264°
2026-04-20 22:30 23.60984 58.30675 244 ft 123 kts 263°
2026-04-20 22:30 23.60912 58.29750 111 ft 122 kts 264°
2026-04-20 22:31 23.60840 58.28859 38 ft 108 kts 263°
2026-04-20 22:31 23.60787 58.28207 38 ft 62 kts 268°
2026-04-20 22:31 23.60744 58.27768 38 ft 61 kts 263°
2026-04-20 22:31 23.60710 58.27274 38 ft 56 kts 267°
2026-04-20 22:32 23.60594 58.26950 38 ft 37 kts 233°
2026-04-20 22:32 23.60470 58.26788 38 ft 19 kts 202°
2026-04-20 22:32 23.60416 58.26886 38 ft 18 kts 87°
2026-04-20 22:32 23.60430 58.27042 38 ft 26 kts 84°
2026-04-20 22:33 23.60447 58.27252 38 ft 27 kts 84°
2026-04-20 22:33 23.60462 58.27458 38 ft 26 kts 86°
2026-04-20 22:33 23.60440 58.27644 38 ft 24 kts 131°
2026-04-20 22:33 23.60383 58.27711 38 ft 7 kts 153°
2026-04-20 22:34 23.60334 58.27686 38 ft 8 kts 222°
2026-04-20 22:34 23.60291 58.27646 38 ft 5 kts 219°
2026-04-20 22:34 23.60285 58.27640 38 ft 0 kts 219°